[{"OBJECT_NAME":"TJS-3","OBJECT_ID":"2018-110A","EPOCH":"2026-09-11T17:51:53.186976","MEAN_MOTION":1.00452118,"ECCENTRICITY":0.000398,"INCLINATION":2.7619,"RA_OF_ASC_NODE":79.3699,"ARG_OF_PERICENTER":137.3878,"MEAN_ANOMALY":207.5193,"EPHEMERIS_TYPE":0,"CLASSIFICATION_TYPE":"U","NORAD_CAT_ID":43874,"ELEMENT_SET_NO":999,"REV_AT_EPOCH":2828,"BSTAR":0,"MEAN_MOTION_DOT":-4e-7,"MEAN_MOTION_DDOT":0},{"OBJECT_NAME":"ZHONGXING-2D","OBJECT_ID":"2019-001A","EPOCH":"2026-09-12T07:40:47.580960","MEAN_MOTION":1.00272909,"ECCENTRICITY":0.00014142,"INCLINATION":0.0463,"RA_OF_ASC_NODE":322.6173,"ARG_OF_PERICENTER":349.2086,"MEAN_ANOMALY":284.728,"EPHEMERIS_TYPE":0,"CLASSIFICATION_TYPE":"U","NORAD_CAT_ID":43920,"ELEMENT_SET_NO":999,"REV_AT_EPOCH":5495,"BSTAR":0,"MEAN_MOTION_DOT":-0.00000351,"MEAN_MOTION_DDOT":0},{"OBJECT_NAME":"HELLAS-SAT 4 & SGS-1","OBJECT_ID":"2019-007A","EPOCH":"2026-09-12T05:32:07.418688","MEAN_MOTION":1.00273375,"ECCENTRICITY":0.00060923,"INCLINATION":0.0613,"RA_OF_ASC_NODE":130.9039,"ARG_OF_PERICENTER":32.4635,"MEAN_ANOMALY":309.9138,"EPHEMERIS_TYPE":0,"CLASSIFICATION_TYPE":"U","NORAD_CAT_ID":44034,"ELEMENT_SET_NO":999,"REV_AT_EPOCH":2825,"BSTAR":0,"MEAN_MOTION_DOT":0.00000138,"MEAN_MOTION_DDOT":0},{"OBJECT_NAME":"GSAT-31","OBJECT_ID":"2019-007B","EPOCH":"2026-09-12T02:09:26.853696","MEAN_MOTION":1.00268953,"ECCENTRICITY":0.000372,"INCLINATION":0.0187,"RA_OF_ASC_NODE":204.9902,"ARG_OF_PERICENTER":24.3046,"MEAN_ANOMALY":202.0555,"EPHEMERIS_TYPE":0,"CLASSIFICATION_TYPE":"U","NORAD_CAT_ID":44035,"ELEMENT_SET_NO":999,"REV_AT_EPOCH":2783,"BSTAR":0,"MEAN_MOTION_DOT":0.0000011,"MEAN_MOTION_DDOT":0},{"OBJECT_NAME":"NUSANTARA SATU","OBJECT_ID":"2019-009A","EPOCH":"2026-09-12T04:20:06.824256","MEAN_MOTION":1.00271558,"ECCENTRICITY":0.00045887,"INCLINATION":0.0249,"RA_OF_ASC_NODE":138.4748,"ARG_OF_PERICENTER":9.923,"MEAN_ANOMALY":53.8314,"EPHEMERIS_TYPE":0,"CLASSIFICATION_TYPE":"U","NORAD_CAT_ID":44048,"ELEMENT_SET_NO":999,"REV_AT_EPOCH":2764,"BSTAR":0,"MEAN_MOTION_DOT":-0.00000249,"MEAN_MOTION_DDOT":0},{"OBJECT_NAME":"ZHONGXING-6C","OBJECT_ID":"2019-012A","EPOCH":"2026-09-12T07:40:55.069248","MEAN_MOTION":1.00271091,"ECCENTRICITY":0.00140529,"INCLINATION":0.0552,"RA_OF_ASC_NODE":307.542,"ARG_OF_PERICENTER":114.51,"MEAN_ANOMALY":174.9748,"EPHEMERIS_TYPE":0,"CLASSIFICATION_TYPE":"U","NORAD_CAT_ID":44067,"ELEMENT_SET_NO":999,"REV_AT_EPOCH":2761,"BSTAR":0,"MEAN_MOTION_DOT":-0.0000035,"MEAN_MOTION_DDOT":0},{"OBJECT_NAME":"WGS 10 (USA 291)","OBJECT_ID":"2019-014A","EPOCH":"2026-09-12T03:55:39.169920","MEAN_MOTION":1.00271039,"ECCENTRICITY":0.00002693,"INCLINATION":0.0074,"RA_OF_ASC_NODE":177.9092,"ARG_OF_PERICENTER":147.5388,"MEAN_ANOMALY":144.9406,"EPHEMERIS_TYPE":0,"CLASSIFICATION_TYPE":"U","NORAD_CAT_ID":44071,"ELEMENT_SET_NO":999,"REV_AT_EPOCH":2749,"BSTAR":0,"MEAN_MOTION_DOT":3.2e-7,"MEAN_MOTION_DDOT":0},{"OBJECT_NAME":"TIANLIAN 2-01","OBJECT_ID":"2019-017A","EPOCH":"2026-09-12T04:24:21.688704","MEAN_MOTION":1.00271723,"ECCENTRICITY":0.00030935,"INCLINATION":0.7586,"RA_OF_ASC_NODE":82.5553,"ARG_OF_PERICENTER":123.6741,"MEAN_ANOMALY":288.0693,"EPHEMERIS_TYPE":0,"CLASSIFICATION_TYPE":"U","NORAD_CAT_ID":44076,"ELEMENT_SET_NO":999,"REV_AT_EPOCH":2752,"BSTAR":0,"MEAN_MOTION_DOT":-0.00000121,"MEAN_MOTION_DDOT":0},{"OBJECT_NAME":"ARABSAT-6A","OBJECT_ID":"2019-021A","EPOCH":"2026-09-12T05:29:45.147264","MEAN_MOTION":1.00275821,"ECCENTRICITY":0.00034688,"INCLINATION":0.0178,"RA_OF_ASC_NODE":14.6675,"ARG_OF_PERICENTER":240.3388,"MEAN_ANOMALY":209.1838,"EPHEMERIS_TYPE":0,"CLASSIFICATION_TYPE":"U","NORAD_CAT_ID":44186,"ELEMENT_SET_NO":999,"REV_AT_EPOCH":2703,"BSTAR":0,"MEAN_MOTION_DOT":0,"MEAN_MOTION_DDOT":0},{"OBJECT_NAME":"BEIDOU-3 IGSO-1","OBJECT_ID":"2019-023A","EPOCH":"2026-09-07T17:44:03.010272","MEAN_MOTION":1.0026721,"ECCENTRICITY":0.0027421,"INCLINATION":58.8141,"RA_OF_ASC_NODE":36.8058,"ARG_OF_PERICENTER":223.4639,"MEAN_ANOMALY":111.5661,"EPHEMERIS_TYPE":0,"CLASSIFICATION_TYPE":"U","NORAD_CAT_ID":44204,"ELEMENT_SET_NO":999,"REV_AT_EPOCH":803,"BSTAR":0,"MEAN_MOTION_DOT":-0.00000201,"MEAN_MOTION_DDOT":0},{"OBJECT_NAME":"BEIDOU-2 G8","OBJECT_ID":"2019-027A","EPOCH":"2026-09-12T07:44:54.685824","MEAN_MOTION":1.00272032,"ECCENTRICITY":0.00090495,"INCLINATION":1.8738,"RA_OF_ASC_NODE":74.3172,"ARG_OF_PERICENTER":278.0738,"MEAN_ANOMALY":259.7237,"EPHEMERIS_TYPE":0,"CLASSIFICATION_TYPE":"U","NORAD_CAT_ID":44231,"ELEMENT_SET_NO":999,"REV_AT_EPOCH":2695,"BSTAR":0,"MEAN_MOTION_DOT":-0.0000026,"MEAN_MOTION_DDOT":0},{"OBJECT_NAME":"YAMAL 601","OBJECT_ID":"2019-031A","EPOCH":"2026-09-12T05:34:59.644128","MEAN_MOTION":1.0027352,"ECCENTRICITY":0.00024335,"INCLINATION":0.0099,"RA_OF_ASC_NODE":152.5484,"ARG_OF_PERICENTER":18.8786,"MEAN_ANOMALY":312.5708,"EPHEMERIS_TYPE":0,"CLASSIFICATION_TYPE":"U","NORAD_CAT_ID":44307,"ELEMENT_SET_NO":999,"REV_AT_EPOCH":2680,"BSTAR":0,"MEAN_MOTION_DOT":0.00000105,"MEAN_MOTION_DDOT":0},{"OBJECT_NAME":"AT&T T-16","OBJECT_ID":"2019-034A","EPOCH":"2026-09-12T03:09:43.573248","MEAN_MOTION":1.00272416,"ECCENTRICITY":0.00005414,"INCLINATION":0.0136,"RA_OF_ASC_NODE":112.7011,"ARG_OF_PERICENTER":300.8744,"MEAN_ANOMALY":244.1466,"EPHEMERIS_TYPE":0,"CLASSIFICATION_TYPE":"U","NORAD_CAT_ID":44333,"ELEMENT_SET_NO":999,"REV_AT_EPOCH":2650,"BSTAR":0,"MEAN_MOTION_DOT":-0.0000013,"MEAN_MOTION_DDOT":0},{"OBJECT_NAME":"EUTELSAT 7C","OBJECT_ID":"2019-034B","EPOCH":"2026-09-12T05:23:00.792672","MEAN_MOTION":1.00271258,"ECCENTRICITY":0.00031437,"INCLINATION":0.0703,"RA_OF_ASC_NODE":178.8526,"ARG_OF_PERICENTER":337.3309,"MEAN_ANOMALY":282.7892,"EPHEMERIS_TYPE":0,"CLASSIFICATION_TYPE":"U","NORAD_CAT_ID":44334,"ELEMENT_SET_NO":999,"REV_AT_EPOCH":770,"BSTAR":0,"MEAN_MOTION_DOT":3.3e-7,"MEAN_MOTION_DDOT":0},{"OBJECT_NAME":"BEIDOU-3 IGSO-2","OBJECT_ID":"2019-035A","EPOCH":"2026-09-11T10:59:48.652800","MEAN_MOTION":1.00273492,"ECCENTRICITY":0.00386525,"INCLINATION":55.2503,"RA_OF_ASC_NODE":158.1052,"ARG_OF_PERICENTER":211.3311,"MEAN_ANOMALY":265.786,"EPHEMERIS_TYPE":0,"CLASSIFICATION_TYPE":"U","NORAD_CAT_ID":44337,"ELEMENT_SET_NO":999,"REV_AT_EPOCH":2653,"BSTAR":0,"MEAN_MOTION_DOT":-0.00000155,"MEAN_MOTION_DDOT":0},{"OBJECT_NAME":"COSMOS 2539","OBJECT_ID":"2019-048A","EPOCH":"2026-09-11T22:33:55.020960","MEAN_MOTION":1.00274688,"ECCENTRICITY":0.0000183,"INCLINATION":0.0176,"RA_OF_ASC_NODE":122.575,"ARG_OF_PERICENTER":102.3036,"MEAN_ANOMALY":116.5623,"EPHEMERIS_TYPE":0,"CLASSIFICATION_TYPE":"U","NORAD_CAT_ID":44457,"ELEMENT_SET_NO":999,"REV_AT_EPOCH":2609,"BSTAR":0,"MEAN_MOTION_DOT":6.6e-7,"MEAN_MOTION_DDOT":0},{"OBJECT_NAME":"EDRS-C","OBJECT_ID":"2019-049A","EPOCH":"2026-09-12T06:01:42.083328","MEAN_MOTION":1.00272238,"ECCENTRICITY":0.00010919,"INCLINATION":0.016,"RA_OF_ASC_NODE":195.3563,"ARG_OF_PERICENTER":335.7178,"MEAN_ANOMALY":53.1117,"EPHEMERIS_TYPE":0,"CLASSIFICATION_TYPE":"U","NORAD_CAT_ID":44475,"ELEMENT_SET_NO":999,"REV_AT_EPOCH":2608,"BSTAR":0,"MEAN_MOTION_DOT":-0.00000277,"MEAN_MOTION_DDOT":0},{"OBJECT_NAME":"INTELSAT 39 (IS-39)","OBJECT_ID":"2019-049B","EPOCH":"2026-09-12T03:56:09.122208","MEAN_MOTION":1.00269817,"ECCENTRICITY":0.0000632,"INCLINATION":0.0227,"RA_OF_ASC_NODE":173.0384,"ARG_OF_PERICENTER":276.0626,"MEAN_ANOMALY":23.0513,"EPHEMERIS_TYPE":0,"CLASSIFICATION_TYPE":"U","NORAD_CAT_ID":44476,"ELEMENT_SET_NO":999,"REV_AT_EPOCH":2600,"BSTAR":0,"MEAN_MOTION_DOT":0,"MEAN_MOTION_DDOT":0},{"OBJECT_NAME":"AMOS-17","OBJECT_ID":"2019-050A","EPOCH":"2026-09-12T05:25:53.018112","MEAN_MOTION":1.00275465,"ECCENTRICITY":0.00016894,"INCLINATION":0.0325,"RA_OF_ASC_NODE":13.4122,"ARG_OF_PERICENTER":164.753,"MEAN_ANOMALY":271.5808,"EPHEMERIS_TYPE":0,"CLASSIFICATION_TYPE":"U","NORAD_CAT_ID":44479,"ELEMENT_SET_NO":999,"REV_AT_EPOCH":2605,"BSTAR":0,"MEAN_MOTION_DOT":9.5e-7,"MEAN_MOTION_DDOT":0},{"OBJECT_NAME":"AEHF-5 (USA 292)","OBJECT_ID":"2019-051A","EPOCH":"2026-09-12T02:22:25.608864","MEAN_MOTION":1.00273941,"ECCENTRICITY":0.00291561,"INCLINATION":1.3941,"RA_OF_ASC_NODE":343.4003,"ARG_OF_PERICENTER":12.2764,"MEAN_ANOMALY":124.1075,"EPHEMERIS_TYPE":0,"CLASSIFICATION_TYPE":"U","NORAD_CAT_ID":44481,"ELEMENT_SET_NO":999,"REV_AT_EPOCH":2613,"BSTAR":0,"MEAN_MOTION_DOT":-0.00000273,"MEAN_MOTION_DDOT":0},{"OBJECT_NAME":"EUTELSAT 5 WEST B","OBJECT_ID":"2019-067A","EPOCH":"2026-09-12T07:02:13.778592","MEAN_MOTION":1.00271414,"ECCENTRICITY":0.00031178,"INCLINATION":0.0807,"RA_OF_ASC_NODE":320.7031,"ARG_OF_PERICENTER":210.1059,"MEAN_ANOMALY":281.0499,"EPHEMERIS_TYPE":0,"CLASSIFICATION_TYPE":"U","NORAD_CAT_ID":44624,"ELEMENT_SET_NO":999,"REV_AT_EPOCH":2530,"BSTAR":0,"MEAN_MOTION_DOT":-5.7e-7,"MEAN_MOTION_DDOT":0},{"OBJECT_NAME":"MEV-1","OBJECT_ID":"2019-067B","EPOCH":"2026-09-11T17:06:06.611328","MEAN_MOTION":1.00273141,"ECCENTRICITY":0.000414,"INCLINATION":0.827,"RA_OF_ASC_NODE":268.0212,"ARG_OF_PERICENTER":263.0067,"MEAN_ANOMALY":232.3531,"EPHEMERIS_TYPE":0,"CLASSIFICATION_TYPE":"U","NORAD_CAT_ID":44625,"ELEMENT_SET_NO":999,"REV_AT_EPOCH":6243,"BSTAR":0,"MEAN_MOTION_DOT":-0.00000163,"MEAN_MOTION_DDOT":0},{"OBJECT_NAME":"TJS-4","OBJECT_ID":"2019-070A","EPOCH":"2026-09-12T04:45:21.735072","MEAN_MOTION":1.00269244,"ECCENTRICITY":0.00031045,"INCLINATION":0.0422,"RA_OF_ASC_NODE":101.0249,"ARG_OF_PERICENTER":145.4805,"MEAN_ANOMALY":259.51,"EPHEMERIS_TYPE":0,"CLASSIFICATION_TYPE":"U","NORAD_CAT_ID":44637,"ELEMENT_SET_NO":999,"REV_AT_EPOCH":2541,"BSTAR":0,"MEAN_MOTION_DOT":-0.00000183,"MEAN_MOTION_DDOT":0},{"OBJECT_NAME":"BEIDOU-3 IGSO-3","OBJECT_ID":"2019-073A","EPOCH":"2026-09-11T11:21:00.152352","MEAN_MOTION":1.0026408,"ECCENTRICITY":0.00468467,"INCLINATION":54.6556,"RA_OF_ASC_NODE":279.957,"ARG_OF_PERICENTER":198.0806,"MEAN_ANOMALY":161.8102,"EPHEMERIS_TYPE":0,"CLASSIFICATION_TYPE":"U","NORAD_CAT_ID":44709,"ELEMENT_SET_NO":999,"REV_AT_EPOCH":2532,"BSTAR":0,"MEAN_MOTION_DOT":-0.00000166,"MEAN_MOTION_DDOT":0}]